HC

Hoosier Classic - Inventory Weeks 1-10

Station: INVENTORY - T Race

Distance: 10 Miles

Release: 15-May-2019 08:30

Weather Release:    Arrival:

Wind at Release:     Wind at Arrival:

Temp at Release: °    Temp at Arrival: °

Lofts: 712

Birds: 4112

Clocked: 3047

Good Luck to Everyone!
Drops Pos Breeder Pigeon Name Color Sex Ent Arrival Speed To Win Eligible BronzeSilverGoldPlatinum
1 Patros - Mclaughlin - MA 0024-AU19-MCLO PNWF H 1 08:31:07.70 15598.227 00:00:00 Yes
2 Andy & Jeff - ME 0246-AU19-BID BB C 1 08:31:19.25 13324.921 00:00:12 Yes
3 J K Loft 2 - ON 0443-CU19-NWIN BWF H 1 08:31:26.14 12259.113 00:00:18 Yes
4 Ez Syndicate - MN 14219-AU19-ARPU BB H 1 08:31:36.25 10971.429 00:00:29 Yes
5 Westfall Loft - MO 0459-AU19-CHAM BB C 1 08:31:49.70 9626.253 00:00:42 Yes
6 3 Hermanos - FL 2109-AU19-HRPC BCWF H 1 08:31:53.19 9329.446 00:00:45 Yes
7 Lsu Loft - LA 0297-AU19-LSU BB H 1 08:32:12.60 7963.801 00:01:05 Yes
8 Placetas & Pelu Loft - FL 0039-AU19-PELU BBWF H 1 08:32:17.64 7672.188 00:01:10 Yes
9 Battleridge Loft - NJ 0090-IF19-WTCM Fire and ice BWF C 1 08:32:20.95 7492.018 00:01:13 Yes
10 Zhen Yuan Guo - SC 0809-AU19-GOU BWFP C 1 08:32:27.67 7151.080 00:01:20 Yes
11 J B D - MD 0233-IF19-CCC BB H 1 08:32:51.99 6139.892 00:01:44 Yes
12 Mike Chafardon - DE 19074-AU19-CHAF BB H 1 08:32:57.98 5933.251 00:01:50 Yes
13 O & L De Vries - ON 3006-CU19-OL BB H 1 08:33:05.75 5685.061 00:01:58 Yes
14 Pleasant Task Farm - PA 19065-AU19-PTF BB H 1 08:33:07.99 5617.320 00:02:00 Yes
15 Cepero Loft - FL 3387-AU19-HRPC BB H 1 08:33:14.02 5442.738 00:02:06 Yes
16 The Immigrants - SC 1224-AU19-GREE BSP C 1 08:33:34.22 4929.512 00:02:27 Yes
17 Wastewater Dirty Birds Llc - CA 1912-AU19-WEBE Soy Boy BCH C 1 08:34:47.91 3667.813 00:03:40 Yes
18 No Sweats Loft - KY 27856-AU19-ARPU BB C 1 08:34:51.59 3621.523 00:03:44 Yes
19 Pigeon Palace - LA 0556-AU19-LAF BB H 1 08:34:59.59 3524.817 00:03:52 Yes
20 Triple L Loft - NY 0359-IF19-LBRA Nikka DCWF H 1 08:34:59.60 3524.700 00:03:52 Yes
21 Flying D Loft - TX 1016-US19-FLYD ‘ Uncle Rico ‘ BCH H 1 08:35:08.62 3421.684 00:04:01 Yes
21 Nebo - UT 0118-AU19-UCA BB C 1 08:35:08.62 3421.684 00:04:01 Yes
23 David Clausing - FL 0111-IF19-CLAU BCH C 1 08:35:18.13 3319.398 00:04:10 Yes
24 Flying D Loft - TX 0250-AU19-FLYD BB C 2 08:35:23.66 3262.683 00:04:16 Yes
25 Peters - GA 0108-AU19-NA PETERS -2 BWF H 1 08:35:29.78 3202.135 00:04:22 Yes
26 Paul Byrski - WI 2949-AU19-GW BCH H 1 08:37:27.77 2358.354 00:06:20 Yes
27 Aladdin Loft - MN 0300-AU19-LUCK BB H 1 08:37:30.77 2342.658 00:06:23 Yes
28 Van Wingerden/Book - CA 9039-AU19-BOOK BWF C 1 08:37:39.00 2300.654 00:06:31 Yes
29 Zhen Yuan Guo - SC 0804-AU19-GOU BWFS C 2 08:37:46.41 2264.102 00:06:39 Yes
30 Tegan Bogoslawski - IN 0099-AU19-ANDY BB H 1 08:37:49.48 2249.297 00:06:42 Yes
31 Schilling 3 - IN 0090-AU19-SCHI BCH H 1 08:37:55.69 2219.933 00:06:48 Yes
32 Schillings 2 - IN 0064-AU19-SCHI Danny 2 BB H 1 08:38:13.83 2138.388 00:07:06 Yes
33 Qiquan Cheng - CA 3636-AU19-BON BB C 1 08:38:16.69 2126.075 00:07:09 Yes
34 Hoover ~ Cosgriff - NJ 0504-IF19-RLPC BCH H 1 08:38:21.46 2105.851 00:07:14 Yes
35 !!hermano Jovellano Loft - FL 315802-AU19-CUBA Mewto BB H 1 08:38:34.09 2054.115 00:07:26 Yes
36 A-Lo-Loft - NY 2881-AU19-FOYS ☯️7032☯️ BCH C 1 08:38:34.50 2052.478 00:07:27 Yes
37 Santico Lof - FL 1706-AU19-HRPC BCH C 1 08:38:49.83 1993.092 00:07:42 Yes
38 Eddie/Leo - FL 1617-AU19-THP BB H 1 08:38:52.71 1982.317 00:07:45 Yes
39 Cherokee Loft - MI 0529-AU19-CHER BB H 1 08:38:56.63 1967.836 00:07:49 Yes
40 Lucky Ali - MN 0223-AU19-LUCK BCH H 1 08:39:02.29 1947.298 00:07:55 Yes
41 House Of Paine - CA 0430-AU19-HOUS DCH C 1 08:39:05.15 1937.082 00:07:57 Yes
42 Joaquin’s Loft - CA 7486-AU19-COM BB H 1 08:39:08.38 1925.672 00:08:01 Yes
43 Twin Loft - FL 1149-AU19-HRPC DCH H 1 08:39:39.32 1822.827 00:08:32 Yes
44 4 Gallos Syndicate - CA 8700-AU19-COM DCH C 1 08:39:40.44 1819.309 00:08:33 Yes
45 Zline - NJ 1989-IF19-ZLIN ROCKET BB C 1 08:39:43.81 1808.808 00:08:36 Yes
46 Ufo - HI 0888-AU19-PONO BCH H 1 08:39:48.54 1794.271 00:08:41 Yes
47 S Procopoi Loft - GA 1471-AU19-NEA BCH H 1 08:39:51.05 1786.651 00:08:43 Yes
48 Thunder Birds/Rodriguez Breeding Loft - TX 19585-AU19-WIN 15777-1100 BB H 1 08:39:54.49 1776.312 00:08:47 Yes
49 S Procopoi Loft - GA 1600-AU19-NEA BCH H 2 08:39:55.62 1772.942 00:08:48 Yes
50 Super Mario Loft - IL 3804-AU19-CHIC BB C 1 08:40:02.00 1754.153 00:08:54 Yes
51 Frank H Cac - CO 0030-AU19-FHC BB H 1 08:40:02.40 1752.988 00:08:55 Yes
52 J & M Partridge Loft - CA 1761-AU19-PASO BB C 1 08:40:02.42 1752.930 00:08:55 Yes
53 Irishsyndicatelofts - AZ 0481-AU19-IRIS BCH C 1 08:40:07.55 1738.129 00:09:00 Yes
54 Ken Family Loft - FL 0010-AU19-XKL BB C 1 08:40:08.70 1734.845 00:09:01 Yes
55 Bpm/3ts Lofts - FL 7931-AU19-JEDD BWF H 1 08:40:09.66 1732.113 00:09:02 Yes
56 Nebo - UT 0110-AU19-UCA BB H 2 08:40:11.96 1725.603 00:09:04 Yes
57 D B J Loft - FL 1806-AU19-DBJ BCH H 1 08:40:17.93 1708.931 00:09:10 Yes
58 Van Gruen Loft - CA 1911-AU19-VG RCH C 1 08:40:20.38 1702.183 00:09:13 Yes
59 Baptista - IL 0087-AU19-FAMP BB H 1 08:40:21.16 1700.045 00:09:13 Yes
60 Genesis Syndicate Loft - AZ 0045-AU19-GEN BCH C 1 08:40:27.66 1682.440 00:09:20 Yes
61 Kiko Loft - FL 4035-AU19-KIKO BB H 1 08:40:28.08 1681.314 00:09:20 Yes
62 Schillings 2 - IN 0063-AU19-SCHI BC C 2 08:40:32.45 1669.697 00:09:25 Yes
63 Fassio Loft - UT 9145-AU19-SLI BB H 1 08:40:32.85 1668.642 00:09:25 Yes
64 Leterbuc Loft - AZ 1933-AU19-VK School You 2 BWFS H 1 08:40:35.81 1660.874 00:09:28 Yes
65 A Brother Loft - AL 53906-AU19-ARPU BB H 1 08:40:38.71 1653.332 00:09:31 Yes
66 No Sweats Loft - KY 27892-AU19-ARPU BB H 2 08:40:39.12 1652.272 00:09:31 Yes
67 Tavares & Son - ON 5519-CU19-MISS BB H 1 08:40:52.65 1618.019 00:09:45 Yes
68 Karl & Nate - PA 15308-AU19-AA BSP H 1 08:40:53.39 1616.186 00:09:46 Yes
69 Monsters Of The Midway Loft - IL 0156-AU19-FAMP BB C 1 08:41:04.23 1589.811 00:09:57 Yes
70 J-R-R - TX 19339-AU19-CVL BB C 1 08:41:07.47 1582.094 00:10:00 Yes
71 A F L - GA 0008-IF19-AFL BB C 1 08:41:07.87 1581.146 00:10:00 Yes
72 Drodriguez - FL 65220-IF19-E RCH C 1 08:41:07.88 1581.122 00:10:00 Yes
73 Dos Hermano & Yosellaj Loft - FL 13301-AU19-JEDD BB C 1 08:41:14.12 1566.487 00:10:06 Yes
73 Armando Valencia Loft - MH 153012-MX19-FMC BCH C 1 08:41:14.12 1566.487 00:10:06 Yes
75 Tim Macken - MN 7033-AU19-RRP WHIT H 1 08:41:17.11 1559.569 00:10:09 Yes
76 Shasta Fly Boys - CA 5067-AU19-SRP BB H 1 08:41:40.00 1508.571 00:10:32 Yes
77 Tom Kuiper - MI 0213-AU19-GRM BB H 1 08:41:40.39 1507.731 00:10:33 Yes
78 Lisuan Loft - FL 47509-AU19-ARPU BB C 1 08:41:42.73 1502.711 00:10:35 Yes
79 Chen & Liu Family Loft - CT 3208-IF19-CC BB H 1 08:41:42.74 1502.689 00:10:35 Yes
80 Shi Loft - PA 7030-IF19-ERIE BB H 1 08:41:49.52 1488.330 00:10:42 Yes
81 Van Wingerden/Book - CA 9004-AU19-BOOK BB H 2 08:42:04.33 1457.899 00:10:57 Yes
82 Team Kosing Gawlu - IL 0162-AU19-FAMP Devate 101 BB C 1 08:42:05.76 1455.026 00:10:58 Yes
83 Bay Area Team - CA 0014-AU19-TRAN BCH C 1 08:42:07.37 1451.806 00:11:00 Yes
83 Chaquez Syndicate - NV 0007-AU19-VL BB H 1 08:42:07.37 1451.806 00:11:00 Yes
85 Furlano & Rotiroti - ON 19062-CU19-LAKE BB H 1 08:42:12.83 1440.989 00:11:05 Yes
86 J & M Partridge Loft - CA 1731-AU19-PASO BWF C 2 08:42:12.84 1440.969 00:11:05 Yes
87 Miller's Loft - HI 11599-AU19-ARPU BB C 1 08:42:13.62 1439.437 00:11:06 Yes
88 Boshoff's - ZA 23713-AU19-ARPU SPL C 1 08:42:14.03 1438.633 00:11:06 Yes
89 Perfectionloft - KS 7078-AU19-AA BB H 1 08:42:14.44 1437.830 00:11:07 Yes
90 Dickson Loft - OK 0122-AU19-DICK BBWF H 1 08:42:14.89 1436.950 00:11:07 Yes
91 Iron Throne - CA 18447-AU19-JEDD Mother of Dragons BWF H 1 08:42:14.90 1436.930 00:11:07 Yes
92 Crescendo Loft - NM 4721-AU19-VK DCH C 1 08:42:15.38 1435.992 00:11:08 Yes
93 Drodriguez - FL 65204-IF19-E CHSP C 2 08:42:20.11 1426.815 00:11:12 Yes
94 Tejano Loft - TX 1941-AU19-TEJA BCH C 1 08:42:40.79 1388.031 00:11:33 Yes
95 Phelps Family Loft - CA 49102-AU19-ARPU BCH H 1 08:42:45.38 1379.707 00:11:38 Yes
96 Eastern Pearl Loft - VA 0512-AU19-EPL 🈚️量512=489x337 BBWF H 1 08:42:45.39 1379.689 00:11:38 Yes
97 Price Brothers - PA 0592-IF19-UPC BB C 1 08:42:46.02 1378.554 00:11:38 Yes
98 Alma Missiles Castro - AZ 24049-AU19-MISS BSP C 1 08:42:46.03 1378.536 00:11:38 Yes
99 Dickerson Loft - TX 0067-AU19-PB BB H 1 08:42:52.12 1367.663 00:11:44 Yes
99 Barry Venn - WY 62911-AU19-ARPU BWF C 1 08:42:52.12 1367.663 00:11:44 Yes

There are 4535 bird records

Note: These Race Results are unofficial and subject to change until verified by the Race Committee and declared final.